[[{"header":{"parameterUnit":"m.s-1","parameterCategory":1,"la1":30.2991,"la2":30.254,"lo1":-89.0895,"lo2":-89.0444,"dy":0.0017,"dx":0.0017,"nx":28,"ny":28,"refTime":"2024-08-12T21:00:00:Z","depth":0,"parameterNumber":2,"parameterNumberName":"U-component_of_WINDS"},"data":[0,0,0,0,0,0,0,0,0,0,0,0,0,0,0,0,0,0,0,0,0,0,0,0,0,0,0,0,0,0,0,0,0,0,0,0,0,0,0,0,0,0,0,0,0,0,0,0,0,0,0,0,0,0,0,0,0,0,1.6704,1.6705,0,1.6759,1.6759,1.676,1.6717,1.6715,1.6713,1.6711,1.6775,1.6779,1.6782,0,0,0,0,0,0,0,0,0,0,0,0,0,1.6573,1.6575,1.6704,1.6705,1.6706,1.6759,1.6759,1.676,1.6717,1.6715,1.6713,1.671,1.6774,1.6778,1.6783,0,0,0,0,0,0,0,0,0,0,0,0,0,1.6629,1.6576,1.6704,1.669,1.669,1.6759,1.6759,1.676,1.6718,1.6715,1.6712,1.6709,1.6773,1.6778,1.6783,1.6871,0,0,1.6799,1.6801,0,0,0,0,0,0,0,0,1.6626,1.6634,1.6692,1.6691,1.6691,1.6728,1.6736,1.6798,1.6718,1.6707,1.6711,1.6708,1.6762,1.6768,1.6785,1.6874,1.6877,1.6799,1.6802,1.6805,1.6806,0,0,0,0,0,0,0,1.6622,1.6631,1.6726,1.6693,1.6692,1.6685,1.6689,1.6748,1.675,1.6708,1.6705,1.6712,1.6762,1.678,1.6786,1.6878,1.6799,1.6804,1.6807,1.6809,1.7045,1.7048,0,0,0,0,0,0,1.6618,1.6628,1.6724,1.6728,1.665,1.6689,1.6695,1.6719,1.6749,1.6751,1.6714,1.6709,1.6773,1.678,1.6788,1.6895,1.6805,1.6809,1.6812,1.7042,1.7046,1.705,0,0,0,0,0,0,1.6615,1.6627,1.6722,1.6677,1.6689,1.6694,1.6722,1.6722,1.674,1.6754,1.6755,1.6732,1.6771,1.6781,1.6851,1.6897,1.6812,1.6817,1.7039,1.7043,1.7048,1.7109,0,0,0,0,0,0,1.6612,1.6626,1.6658,1.6678,1.6691,1.6781,1.6725,1.6725,1.6748,1.6742,1.6771,1.6773,1.6769,1.6843,1.6856,1.6903,1.6821,1.7034,1.7041,1.7046,1.7103,1.7115,1.7126,0,0,0,0,0,1.6607,1.6674,1.6659,1.6671,1.673,1.6784,1.6792,1.6784,1.6751,1.6785,1.6794,1.6772,1.6889,1.6851,1.6865,1.6914,1.7032,1.7039,1.7046,1.7098,1.7113,1.7126,0,0,0,0,0,0,1.6661,1.6676,1.666,1.6735,1.6758,1.6776,1.6818,1.68,1.6835,1.6829,1.682,1.6827,1.6901,1.6914,1.6871,1.7002,1.6956,1.6966,1.6991,1.7005,1.7016,1.7013,1.6825,0,0,0,0,0,1.6681,1.6721,1.6733,1.6798,1.681,1.6812,1.6835,1.6827,1.6852,1.6863,1.6877,1.6905,1.6948,1.6977,1.7018,1.7104,1.7112,1.7145,1.7157,1.7166,1.7176,1.7226,1.7241,1.7073,1.7073,1.7073,0,0,1.6724,1.6737,1.6763,1.6809,1.6826,1.6871,1.6821,1.687,1.6904,1.6871,1.6938,1.695,1.698,1.706,1.7095,1.7073,1.7224,1.7175,1.7182,1.7187,1.7235,1.7251,1.7265,1.7078,1.7077,1.7076,0,0,1.6825,1.6837,1.6894,1.6912,1.6938,1.6939,1.6952,1.6974,1.698,1.7046,1.7023,1.7065,1.7139,1.7163,1.7184,1.7296,1.7279,1.731,1.7371,1.7419,1.7433,1.7445,1.7487,1.7502,1.7319,1.7319,1.7319,0,1.6876,1.6939,1.6926,1.6977,1.6999,1.6969,1.7029,1.7048,1.7087,1.7105,1.7078,1.7172,1.719,1.7276,1.7303,1.7321,1.7339,1.7307,1.7431,1.7443,1.7454,1.7495,1.751,1.7323,1.7323,1.7322,1.7322,0,1.7002,1.7046,1.7089,1.7125,1.7153,1.7208,1.7206,1.7236,1.7226,1.7231,1.7301,1.7322,1.7367,1.7387,1.7378,1.7473,1.7458,1.7432,1.7385,1.7474,1.7512,1.7528,1.7329,1.7327,1.7326,1.7325,0,0,1.7138,1.7166,1.7183,1.72,1.7227,1.7263,1.7318,1.736,1.7387,1.7416,1.7464,1.7528,1.7504,1.7529,1.7523,1.7565,1.7656,1.7534,1.7535,1.7558,1.7765,1.7786,1.7804,1.7644,1.7647,1.7649,1.7764,0,1.7242,1.7335,1.7326,1.7415,1.7459,1.7431,1.748,1.7504,1.7511,1.7551,1.7559,1.7605,1.7569,1.7584,1.7625,1.7636,1.7698,1.7628,1.7692,1.7695,1.7687,1.7824,1.7846,1.7953,1.7778,1.7781,1.7782,0,1.7376,1.7407,1.75,1.7522,1.754,1.7584,1.7623,1.766,1.7688,1.769,1.7718,1.7706,1.7765,1.7716,1.78,1.7752,1.7778,1.7789,1.7793,1.78,1.7745,1.7838,1.7987,1.8004,1.7805,1.7803,1.7802,0,1.747,1.7535,1.76,1.7615,1.7642,1.7673,1.7687,1.7711,1.7738,1.7773,1.7791,1.7834,1.7858,1.7893,1.7893,1.7857,1.7979,1.793,1.7986,1.7986,1.8014,1.8013,1.8172,1.8027,1.8027,1.8027,1.8027,0,1.7588,1.7647,1.7642,1.7682,1.7749,1.7739,1.7806,1.7816,1.7839,1.7883,1.7863,1.7906,1.7903,1.7947,1.7949,1.802,1.803,1.8036,1.8036,1.8039,1.8039,1.8058,1.8051,1.8031,1.803,1.8029,1.8029,0,1.7704,1.7703,1.7772,1.7792,1.7798,1.7847,1.7865,1.7905,1.7909,1.7966,1.7979,1.7988,1.8039,1.8043,1.8103,1.8104,1.8191,1.8182,1.8181,1.818,1.8237,1.8232,1.8416,1.844,1.8277,1.8279,1.828,0,1.7781,1.7825,1.7849,1.7876,1.789,1.7934,1.7961,1.7954,1.7983,1.8019,1.8056,1.8105,1.8144,1.8228,1.8242,1.8288,1.8282,1.8343,1.8289,1.8291,1.8286,1.8284,1.829,1.8354,1.8356,1.8357,1.8358,0,1.7918,1.7915,1.7952,1.7991,1.8023,1.8053,1.8082,1.8106,1.8103,1.8138,1.8188,1.8218,1.8279,1.8329,1.8375,1.8392,1.8377,1.8375,1.8391,1.8395,1.8394,1.8398,1.8212,1.8371,1.837,1.8369,1.8368,1.8368,1.8018,1.8057,1.808,1.8124,1.8144,1.8172,1.821,1.822,1.8261,1.8308,1.8302,1.836,1.839,1.8449,1.847,1.8517,1.8497,1.8519,1.8526,1.8532,1.8539,1.8385,1.8525,1.8525,1.8525,1.8524,1.8524,0,1.8156,1.817,1.821,1.8249,1.8284,1.8263,1.8294,1.8326,1.8376,1.8403,1.8441,1.8502,1.8551,1.8568,1.8617,1.8652,1.8646,1.8665,1.8664,1.8669,1.8553,1.8535,1.8669,1.8669,1.8669,1.8669,1.8669,1.8669,1.8232,1.8298,1.8299,1.8376,1.839,1.8444,1.8464,1.849,1.8512,1.8579,1.8619,1.8629,1.8654,1.8704,1.875,1.8754,1.8774,1.8797,1.8799,1.8691,1.8676,1.8662,1.8646,1.8801,1.8801,1.891,1.8911,1.8912]},{"header":{"parameterUnit":"m.s-1","parameterCategory":1,"la1":30.2991,"la2":30.254,"lo1":-89.0895,"lo2":-89.0444,"dy":0.0017,"dx":0.0017,"nx":28,"ny":28,"refTime":"2024-08-12T21:00:00:Z","depth":0,"parameterNumber":3,"parameterNumberName":"V-component_of_WINDS"},"data":[0,0,0,0,0,0,0,0,0,0,0,0,0,0,0,0,0,0,0,0,0,0,0,0,0,0,0,0,0,0,0,0,0,0,0,0,0,0,0,0,0,0,0,0,0,0,0,0,0,0,0,0,0,0,0,0,0,0,0.7298,0.7298,0,0.7295,0.7295,0.7295,0.7268,0.7267,0.7267,0.7266,0.7262,0.7262,0.7263,0,0,0,0,0,0,0,0,0,0,0,0,0,0.7277,0.7278,0.7298,0.7298,0.7298,0.7295,0.7295,0.7295,0.7268,0.7267,0.7266,0.7266,0.7261,0.7262,0.7263,0,0,0,0,0,0,0,0,0,0,0,0,0,0.7281,0.7278,0.7298,0.7284,0.7283,0.7295,0.7295,0.7295,0.7268,0.7267,0.7266,0.7265,0.7261,0.7262,0.7263,0.7288,0,0,0.7265,0.7265,0,0,0,0,0,0,0,0,0.7281,0.7282,0.7286,0.7285,0.7284,0.7281,0.7286,0.7293,0.7268,0.7274,0.7266,0.7265,0.7269,0.7269,0.727,0.7287,0.7287,0.7265,0.7266,0.7266,0.7266,0,0,0,0,0,0,0,0.7281,0.7282,0.7297,0.7286,0.7285,0.7277,0.7277,0.7287,0.7277,0.7273,0.7271,0.7271,0.7268,0.727,0.727,0.7287,0.7265,0.7266,0.7266,0.7266,0.732,0.7321,0,0,0,0,0,0,0.7283,0.7282,0.7297,0.7297,0.728,0.7278,0.7278,0.7283,0.7277,0.7275,0.7272,0.727,0.7269,0.7269,0.727,0.7296,0.7266,0.7267,0.7267,0.7319,0.7321,0.7322,0,0,0,0,0,0,0.7283,0.7285,0.7297,0.7289,0.729,0.728,0.7286,0.7283,0.7285,0.7276,0.7274,0.7276,0.7268,0.7269,0.7283,0.7295,0.7267,0.7268,0.7318,0.732,0.7321,0.735,0,0,0,0,0,0,0.7282,0.7285,0.7295,0.7289,0.7291,0.7311,0.7287,0.7284,0.7287,0.7284,0.7279,0.7277,0.7267,0.7282,0.7283,0.7296,0.7268,0.7317,0.7319,0.7321,0.7348,0.7352,0.7356,0,0,0,0,0,0.7281,0.7304,0.7296,0.7298,0.7303,0.7312,0.7312,0.7301,0.7288,0.7297,0.7291,0.7278,0.7294,0.7283,0.7285,0.7298,0.7316,0.7318,0.7321,0.7346,0.7351,0.7356,0,0,0,0,0,0,0.7311,0.7303,0.7294,0.7315,0.7314,0.7307,0.7319,0.7308,0.731,0.7308,0.7293,0.7292,0.7307,0.7304,0.7292,0.732,0.7303,0.7305,0.7321,0.7326,0.733,0.733,0.7269,0,0,0,0,0,0.732,0.7329,0.7321,0.734,0.734,0.733,0.7333,0.7324,0.7323,0.7322,0.7317,0.7315,0.732,0.7323,0.7327,0.7348,0.7345,0.7357,0.7361,0.7365,0.7367,0.7374,0.7379,0.7329,0.7329,0.7329,0,0,0.7339,0.7335,0.7342,0.7346,0.7344,0.7352,0.733,0.734,0.7344,0.7323,0.7335,0.7332,0.7329,0.7345,0.7352,0.7343,0.738,0.7368,0.737,0.737,0.7377,0.7382,0.7386,0.733,0.733,0.733,0,0,0.7376,0.7375,0.739,0.7388,0.7386,0.7379,0.7382,0.7377,0.7373,0.7385,0.7368,0.7374,0.7383,0.738,0.738,0.7414,0.7401,0.7416,0.7437,0.7444,0.7448,0.7452,0.7461,0.7465,0.7418,0.7418,0.7418,0,0.7399,0.7411,0.7399,0.7409,0.741,0.7391,0.7404,0.7404,0.7403,0.7403,0.7393,0.7402,0.7399,0.7413,0.7421,0.7423,0.7424,0.7416,0.7449,0.7452,0.7455,0.7464,0.7468,0.742,0.742,0.742,0.742,0,0.7438,0.7446,0.7458,0.7457,0.746,0.7472,0.746,0.7464,0.7454,0.7447,0.7458,0.7453,0.7455,0.7458,0.7449,0.747,0.7464,0.7452,0.7434,0.7462,0.747,0.7473,0.7422,0.7422,0.7421,0.7421,0,0,0.7494,0.7485,0.7489,0.7487,0.7482,0.7488,0.7498,0.7499,0.7501,0.7501,0.7507,0.7514,0.7502,0.7502,0.7493,0.75,0.7523,0.7486,0.7486,0.7491,0.7543,0.755,0.7555,0.7515,0.7515,0.7516,0.7542,0,0.7528,0.7545,0.7533,0.7551,0.7557,0.7538,0.7546,0.7543,0.7537,0.754,0.7532,0.7536,0.7522,0.7521,0.7527,0.7519,0.7533,0.7517,0.7518,0.7519,0.7518,0.7559,0.7568,0.7593,0.7545,0.7546,0.7546,0,0.757,0.757,0.7589,0.758,0.7582,0.759,0.7588,0.7593,0.7588,0.7582,0.7581,0.7569,0.7576,0.7559,0.7568,0.7557,0.7557,0.7553,0.7553,0.7552,0.7533,0.7557,0.7601,0.7604,0.7552,0.7551,0.7551,0,0.7606,0.7611,0.7622,0.7621,0.7612,0.7618,0.7614,0.7609,0.7609,0.7608,0.7607,0.7607,0.7607,0.7606,0.7593,0.7582,0.7602,0.7585,0.7596,0.7596,0.76,0.7599,0.7643,0.7603,0.7603,0.7603,0.7603,0,0.7643,0.7655,0.7638,0.7644,0.7656,0.7642,0.7653,0.7647,0.7642,0.7646,0.763,0.7634,0.7618,0.7619,0.761,0.7616,0.7617,0.7611,0.7608,0.7611,0.7612,0.761,0.7607,0.7604,0.7603,0.7603,0.7603,0,0.7685,0.7674,0.7684,0.7675,0.7672,0.7681,0.7672,0.7676,0.7668,0.7673,0.7674,0.7661,0.7662,0.7649,0.7648,0.7641,0.7651,0.7646,0.7653,0.765,0.7661,0.7659,0.7703,0.7707,0.7667,0.7667,0.7668,0,0.7709,0.7717,0.7707,0.7709,0.7706,0.7709,0.7709,0.7695,0.7695,0.7689,0.7694,0.7694,0.7693,0.7694,0.7684,0.7682,0.7675,0.7691,0.7675,0.7677,0.7673,0.7672,0.7671,0.7694,0.7694,0.7695,0.7695,0,0.7751,0.7745,0.7746,0.7745,0.7745,0.7743,0.7741,0.7742,0.7727,0.7728,0.7728,0.7727,0.7725,0.7724,0.772,0.7715,0.7701,0.77,0.7702,0.7705,0.7708,0.7704,0.7659,0.7699,0.7699,0.7698,0.7698,0.7698,0.7783,0.7788,0.7782,0.7783,0.7779,0.7776,0.7779,0.7771,0.7772,0.7769,0.776,0.7761,0.7754,0.7747,0.7743,0.7743,0.7735,0.7739,0.7739,0.774,0.7741,0.7709,0.7742,0.7742,0.7742,0.7742,0.7742,0,0.7822,0.7817,0.7818,0.7814,0.7814,0.7803,0.7798,0.7799,0.78,0.7795,0.7794,0.7793,0.7791,0.778,0.7777,0.7779,0.7772,0.7778,0.7777,0.7775,0.7749,0.7747,0.7783,0.7783,0.7783,0.7783,0.7783,0.7783,0.7843,0.785,0.7843,0.7848,0.7842,0.7843,0.7841,0.7838,0.7833,0.7833,0.7832,0.7825,0.7817,0.7812,0.7809,0.7806,0.7804,0.7812,0.7806,0.7782,0.7778,0.7774,0.7771,0.7812,0.7812,0.7832,0.7832,0.7833]}]]